Flag for U.S.A. Weather past 2 weeks in Chattanooga, Tennessee, U.S.A.

Now
71 °F

Clear.


Feels Like: 67 °F
Forecast: 66 / 85 °F
Wind: No wind

Location: Lovell Field

Current Time: May 30, 2015 at 2:53:13 AM

Latest Report: May 30, 2015 at 1:53 AM


Visibility: 8 mi

Pressure: 30.11 "Hg

Humidity: 93%

Dew point: 69 °F

Location of ChattanoogaLocation

Historic Weather in Chattanooga — Graph

°F

Chattanooga temperature yesterday

Maximum temperature yesterday: 84 °F (at 2:53 PM)
Minimum temperature yesterday: 66 °F (at 3:53 AM)
Average temperature yesterday: 72 °F

Past Weeks' High & Low Weather Summary

 TemperatureHumidityPressure
High87 °F (May 20, 3:53 PM)97% (May 17, 4:53 AM)30.38 "Hg (May 17, 4:53 AM)
Low50 °F (May 23, 5:53 AM)24% (May 22, 4:53 PM)29.86 "Hg (May 20, 10:53 PM)
Average71 °F73%30.16 "Hg
* Reported May 15 1:53 AM — May 30 1:53 AM, Chattanooga, Weather by CustomWeather, © 2015

Note: Actual official high and low records may vary slightly from our data, if they occured in-between our weather recording intervals... More about our weather records

Advertising

Chattanooga weather history for previous 24 hours

 ConditionsComfort  
Time TempWeatherWind HumidityBarometerVisibility
1:53 AM
Sat, May 30
71 °FClear.No wind93%30.11 "Hg8 mi
12:53 AM72 °FClear.No wind93%30.12 "Hg9 mi
11:53 PM
Fri, May 29
72 °FPartly cloudy.No wind93%30.12 "Hg10 mi
10:53 PM74 °FPartly cloudy.No wind85%30.12 "Hg10 mi
9:53 PM74 °FPartly cloudy.No wind85%30.11 "Hg10 mi
8:53 PM75 °FBroken clouds.No wind85%30.10 "Hg10 mi
7:53 PM76 °FPartly sunny.3 mph80%30.10 "Hg10 mi
6:53 PM76 °FPartly sunny.3 mph80%30.10 "Hg10 mi
5:53 PM75 °FBroken clouds.5 mph79%30.12 "Hg10 mi
4:53 PM71 °FPartly sunny.No wind87%30.14 "Hg10 mi
3:53 PM74 °FLight rain. Broken clouds.14 mph79%30.16 "Hg4 mi
2:53 PM84 °FBroken clouds.9 mph53%30.14 "Hg10 mi
1:53 PM82 °FBroken clouds.10 mph58%30.16 "Hg10 mi
12:53 PM80 °FBroken clouds.7 mph62%30.19 "Hg10 mi
11:53 AM76 °FCloudy.7 mph72%30.21 "Hg10 mi
10:53 AM75 °FMostly cloudy.No wind76%30.20 "Hg10 mi
9:53 AM73 °FFog.5 mph79%30.21 "Hg5 mi
8:53 AM71 °FFog.5 mph87%30.20 "Hg4 mi
7:53 AM69 °FFog.No wind90%30.19 "Hg3 mi
6:53 AM67 °FFog.3 mph93%30.16 "Hg2 mi
5:53 AM67 °FFog.3 mph97%30.14 "Hg4 mi
4:53 AM67 °FPassing clouds.No wind93%30.13 "Hg10 mi
3:53 AM66 °FFog.3 mph96%30.11 "Hg1 mi
2:53 AM68 °FClear.No wind93%30.11 "Hg10 mi
2:02 AM68 °FPassing clouds.No wind96%30.15 "Hg10 mi
Weather by CustomWeather, © 2015

See weather overviewHow to use our weather pages